| time (UTC) | temp F | wind direction | speed knots | gust knots | rain 1hr in | rain 24hr in | rain mn in | humidity % | barometer mb |
| 20260504231845 | 54 | 341 | 2.6 | 4.3 | 0.00 | 0.02 | 0.00 | 71 | 1005.9 |
| 20260504230346 | 55 | 349 | 3.5 | 5.2 | 0.00 | 0.04 | 0.00 | 69 | 1005.6 |
| 20260504224912 | 55 | 344 | 4.3 | 9.6 | 0.00 | 0.04 | 0.00 | 68 | 1005.3 |
| 20260504223352 | 55 | 325 | 4.3 | 10.4 | 0.00 | 0.04 | 0.00 | 67 | 1005.2 |
| 20260504221847 | 56 | 333 | 6.1 | 12.2 | 0.00 | 0.04 | 0.00 | 66 | 1005.1 |
| 20260504220355 | 57 | 315 | 7.0 | 13.9 | 0.00 | 0.07 | 0.00 | 64 | 1004.9 |
| 20260504214857 | 58 | 330 | 6.1 | 11.3 | 0.00 | 0.07 | 0.00 | 62 | 1004.7 |
| 20260504213336 | 58 | 323 | 5.2 | 13.9 | 0.00 | 0.07 | 0.00 | 61 | 1004.4 |
| 20260504211858 | 58 | 300 | 7.0 | 12.2 | 0.00 | 0.07 | 0.00 | 60 | 1004.2 |
| 20260504210343 | 57 | 275 | 5.2 | 14.8 | 0.00 | 0.10 | 0.00 | 61 | 1004.4 |
| 20260504204847 | 57 | 291 | 7.0 | 14.8 | 0.00 | 0.10 | 0.00 | 62 | 1004.2 |
| 20260504203349 | 57 | 291 | 7.8 | 17.4 | 0.00 | 0.10 | 0.00 | 61 | 1004.1 |
| 20260504201917 | 57 | 309 | 7.8 | 21.7 | 0.00 | 0.10 | 0.00 | 61 | 1004.3 |
| 20260504200336 | 58 | 294 | 10.4 | 20.0 | 0.00 | 0.12 | 0.00 | 60 | 1004.3 |
| 20260504194858 | 58 | 287 | 7.0 | 14.8 | 0.00 | 0.12 | 0.00 | 60 | 1004.2 |
| 20260504193336 | 57 | 265 | 12.2 | 20.9 | 0.00 | 0.12 | 0.00 | 60 | 1004.2 |
| 20260504191838 | 57 | 268 | 6.1 | 20.9 | 0.00 | 0.12 | 0.00 | 60 | 1004.3 |
| 20260504190358 | 55 | 306 | 6.1 | 13.0 | 0.00 | 0.19 | 0.00 | 65 | 1004.6 |
| 20260504184901 | 54 | 319 | 7.8 | 13.0 | 0.00 | 0.19 | 0.00 | 65 | 1004.7 |
| 20260504183344 | 55 | 311 | 6.1 | 16.5 | 0.00 | 0.19 | 0.00 | 61 | 1004.5 |
| 20260504181846 | 55 | 290 | 8.7 | 14.8 | 0.00 | 0.19 | 0.00 | 59 | 1004.5 |
| 20260504180348 | 56 | 235 | 5.2 | 11.3 | 0.00 | 0.33 | 0.00 | 52 | 1004.5 |
| 20260504174849 | 57 | 225 | 7.0 | 15.6 | 0.00 | 0.33 | 0.00 | 49 | 1003.7 |
| 20260504173354 | 58 | 268 | 7.8 | 12.2 | 0.00 | 0.33 | 0.00 | 47 | 1003.6 |
| 20260504171855 | 59 | 216 | 7.0 | 16.5 | 0.00 | 0.33 | 0.00 | 44 | 1003.6 |
| 20260504170354 | 59 | 211 | 7.0 | 20.9 | 0.00 | 0.40 | 0.00 | 45 | 1003.7 |
| 20260504160344 | 58 | 246 | 4.3 | 18.2 | 0.00 | 0.43 | 0.00 | 48 | 1004.4 |
| 20260504150355 | 55 | 304 | 8.7 | 13.9 | 0.00 | 0.46 | 0.00 | 52 | 1005.4 |
| 20260504140352 | 51 | 341 | 8.7 | 19.1 | 0.00 | 0.50 | 0.00 | 54 | 1005.8 |
| 20260504130343 | 48 | 304 | 8.7 | 14.8 | 0.00 | 0.56 | 0.00 | 58 | 1006.3 |
| 20260504110401 | 39 | 271 | 5.2 | 12.2 | 0.00 | 0.65 | 0.61 | 77 | 1005.8 |
| 20260504100350 | 37 | 294 | 4.3 | 8.7 | 0.00 | 0.67 | 0.61 | 77 | 1004.8 |
| 20260504081910 | 37 | 293 | 5.2 | 17.4 | 0.00 | 0.73 | 0.61 | 72 | 1003.4 |
| 20260504080349 | 37 | 303 | 7.8 | 13.0 | 0.00 | 0.78 | 0.61 | 70 | 1003.4 |
| 20260504070346 | 38 | 351 | 6.1 | 12.2 | 0.00 | 0.82 | 0.61 | 64 | 1002.9 |
| 20260504050342 | 43 | 302 | 7.0 | 14.8 | 0.00 | 0.82 | 0.61 | 15 | 1002.1 |
| 20260504044846 | 43 | 308 | 5.2 | 16.5 | 0.00 | 0.82 | 0.61 | 16 | 1002.0 |
| 20260504043413 | 43 | 309 | 7.0 | 15.6 | 0.00 | 0.82 | 0.61 | 11 | 1001.7 |
| 20260504041853 | 43 | 320 | 8.7 | 14.8 | 0.00 | 0.82 | 0.61 | 4 | 1001.5 |
| 20260504040336 | 43 | 339 | 7.0 | 16.5 | 0.00 | 0.83 | 0.61 | 1 | 1001.5 |
| 20260504034842 | 43 | 319 | 5.2 | 13.0 | 0.00 | 0.83 | 0.61 | 1 | 1001.4 |
| 20260504033345 | 42 | 329 | 7.8 | 12.2 | 0.00 | 0.83 | 0.61 | 1 | 1001.3 |
| 20260504031846 | 42 | 338 | 6.1 | 13.9 | 0.00 | 0.83 | 0.61 | 1 | 1001.1 |
| 20260504030334 | 42 | 298 | 8.7 | 13.9 | 0.00 | 0.83 | 0.61 | 1 | 1000.9 |
| 20260504024835 | 42 | 317 | 7.0 | 13.9 | 0.00 | 0.83 | 0.61 | 1 | 1000.7 |
| 20260504023338 | 42 | 320 | 10.4 | 15.6 | 0.00 | 0.83 | 0.61 | 1 | 1000.7 |
| 20260504021903 | 42 | 69 | 8.7 | 16.5 | 0.01 | 0.83 | 0.61 | 1 | 1000.6 |
| 20260504020344 | 42 | 343 | 7.0 | 17.4 | 0.01 | 0.83 | 0.61 | 1 | 1000.6 |
| 20260504014845 | 42 | 13 | 8.7 | 15.6 | 0.01 | 0.83 | 0.61 | 1 | 1000.6 |
| 20260504013348 | 42 | 337 | 8.7 | 17.4 | 0.01 | 0.83 | 0.61 | 1 | 1000.6 |
| 20260504011854 | 42 | 360 | 7.8 | 18.2 | 0.01 | 0.82 | 0.60 | 1 | 1000.4 |
| 20260504010348 | 42 | 311 | 7.8 | 14.8 | 0.01 | 0.82 | 0.60 | 1 | 1000.2 |
| 20260504004850 | 42 | 355 | 11.3 | 19.1 | 0.01 | 0.82 | 0.60 | 1 | 1000.0 |
| 20260504003336 | 42 | 355 | 8.7 | 15.6 | 0.01 | 0.82 | 0.60 | 1 | 999.9 |
| 20260504001839 | 42 | 22 | 9.6 | 19.1 | 0.00 | 0.81 | 0.59 | 1 | 999.8 |
| 20260504000341 | 41 | 346 | 9.6 | 15.6 | 0.01 | 0.81 | 0.59 | 1 | 999.5 |
| 20260503234847 | 41 | 340 | 7.8 | 16.5 | 0.01 | 0.81 | 0.59 | 1 | 999.3 |
| 20260503233348 | 41 | 27 | 10.4 | 18.2 | 0.01 | 0.81 | 0.59 | 1 | 999.1 |